Location: Cortada de Papelón
(10.0378°N, 66.9528°W)
Time: 09:34:25
(UTC+00:00)

Landsat 7 - Pass Details

Date: 13 June 2024
Orbit: 690 x 691 km, 97.9° (Epoch: 19 July)

Event Time Altitude Azimuth Distance (km) Brightness Sun altitude
Exits shadow 23:40:32 - 171° (S) 2,946 6.7 -12.2°
Reaches altitude 10° 23:42:30 10° 172° (S) 2,139 6.0 -12.7°
Maximum altitude 23:47:11 79° 257° (WSW) 705 3.9 -13.7°
Drops below altitude 10° 23:51:53 10° 345° (NNW) 2,138 6.9 -14.7°
Sets 23:54:07 0° 347° (NNW) 3,054 7.7 -15.2°
